Location: Sungai Liu
(2.3667°N, 113.8667°E)
Time: 13:08:43
(UTC+00:00)

Ariane H10 - Pass Details

Date: 20 May 2022
Orbit: 393 x 33264 km, 7.5° (Epoch: 06 July)

Event Time Altitude Azimuth Distance (km) Brightness Sun altitude
Rises 12:09:52 0° 278° (W) 5,905 9.3 -24.5°
Reaches altitude 10° 12:15:40 10° 283° (WNW) 3,082 7.6 -25.8°
Enters shadow 12:20:34 41° 334° (NNW) 805 3.9 -27.0°
